When you browse on this site, cookies collect data to enhance your experience and personalize the content and advertising you see.
Visit our Privacy Policy to learn more. By continuing to use the site, you agree to this use of cookies and data.
  • en Belgique
  • Liste des pays
  • À 7 jours
  • Température de l'eau
  • Carte satellitaire
  • Carte météo
  • Widgets météo
  • user-avatar
    Se connecter

    Météo par heure à Kavarna

    Ce jour, 21 Janvier, Lundi

    Heure Température Précipitation Vent Pression Humidité
    00:00 +7°C° 0.1 mm 4 m/s 760 mmHg 93%
    01:00 +6°C° 0.1 mm 4 m/s 760 mmHg 93%
    02:00 +6°C° 0.1 mm 4 m/s 760 mmHg 93%
    03:00 +5°C° 0 mm 5 m/s 760 mmHg 92%
    04:00 +3°C° 0 mm 6 m/s 760 mmHg 90%
    05:00 +2°C° 0 mm 7 m/s 760 mmHg 89%
    06:00 +2°C° 0 mm 7 m/s 760 mmHg 87%
    07:00 +2°C° 0 mm 7 m/s 761 mmHg 86%
    08:00 0°C° 0 mm 7 m/s 761 mmHg 84%
    09:00 +2°C° 0 mm 7 m/s 762 mmHg 82%
    10:00 +2°C° 0 mm 7 m/s 762 mmHg 80%
    11:00 +2°C° 0 mm 7 m/s 763 mmHg 78%
    12:00 +3°C° 0 mm 6 m/s 763 mmHg 76%
    13:00 +3°C° 0 mm 6 m/s 763 mmHg 74%
    14:00 +3°C° 0 mm 6 m/s 763 mmHg 71%
    15:00 +2°C° 0 mm 6 m/s 764 mmHg 73%
    16:00 +2°C° 0 mm 6 m/s 764 mmHg 75%
    17:00 +1°C° 0 mm 6 m/s 764 mmHg 77%
    18:00 +1°C° 0 mm 6 m/s 765 mmHg 79%
    19:00 -1°C° 0 mm 6 m/s 765 mmHg 80%
    20:00 0°C° 0 mm 5 m/s 765 mmHg 82%
    21:00 -1°C° 0 mm 5 m/s 765 mmHg 82%
    22:00 -1°C° 0 mm 4 m/s 766 mmHg 83%
    23:00 -1°C° 0 mm 4 m/s 766 mmHg 84%

    Demain, 22 Janvier, Mardi

    Heure Température Précipitation Vent Pression Humidité
    00:00 -1°C° 0 mm 4 m/s 766 mmHg 84%
    01:00 0°C° 0 mm 3 m/s 766 mmHg 85%
    02:00 0°C° 0 mm 3 m/s 766 mmHg 86%
    03:00 0°C° 0 mm 3 m/s 766 mmHg 86%
    04:00 0°C° 0 mm 3 m/s 765 mmHg 86%
    05:00 0°C° 0 mm 3 m/s 765 mmHg 87%
    06:00 0°C° 0 mm 3 m/s 765 mmHg 86%
    07:00 +1°C° 0 mm 3 m/s 765 mmHg 85%
    08:00 +1°C° 0 mm 3 m/s 765 mmHg 83%
    09:00 +2°C° 0 mm 3 m/s 765 mmHg 81%
    10:00 +2°C° 0 mm 3 m/s 765 mmHg 78%
    11:00 +3°C° 0 mm 3 m/s 765 mmHg 75%
    12:00 +3°C° 0 mm 4 m/s 764 mmHg 76%
    13:00 +3°C° 0 mm 4 m/s 763 mmHg 77%
    14:00 +4°C° 0 mm 4 m/s 763 mmHg 77%
    15:00 +3°C° 0 mm 4 m/s 762 mmHg 79%
    16:00 +3°C° 0 mm 4 m/s 762 mmHg 81%
    17:00 +2°C° 0 mm 5 m/s 761 mmHg 83%
    18:00 +2°C° 0 mm 5 m/s 761 mmHg 84%
    19:00 +3°C° 0 mm 6 m/s 761 mmHg 85%
    20:00 +3°C° 0 mm 6 m/s 760 mmHg 87%
    21:00 +3°C° 0 mm 6 m/s 760 mmHg 87%
    22:00 +3°C° 0 mm 6 m/s 759 mmHg 88%
    23:00 +3°C° 0 mm 6 m/s 759 mmHg 89%

    Après-demain, 23 Janvier, Mercredi

    Heure Température Précipitation Vent Pression Humidité
    00:00 +4°C° 0 mm 7 m/s 758 mmHg 90%
    01:00 +4°C° 0 mm 7 m/s 758 mmHg 91%
    02:00 +4°C° 0 mm 8 m/s 757 mmHg 92%
    03:00 +4°C° 0.2 mm 8 m/s 756 mmHg 93%
    04:00 +5°C° 0.2 mm 7 m/s 755 mmHg 94%
    05:00 +5°C° 0.2 mm 7 m/s 754 mmHg 96%
    06:00 +5°C° 1.7 mm 8 m/s 754 mmHg 94%
    07:00 +6°C° 1.7 mm 9 m/s 754 mmHg 93%
    08:00 +6°C° 1.7 mm 9 m/s 753 mmHg 91%
    09:00 +7°C° 0 mm 10 m/s 753 mmHg 87%
    10:00 +8°C° 0 mm 11 m/s 753 mmHg 83%
    11:00 +8°C° 0 mm 11 m/s 753 mmHg 79%
    12:00 +9°C° 0 mm 11 m/s 752 mmHg 77%
    13:00 +11°C° 0 mm 10 m/s 752 mmHg 75%
    14:00 +11°C° 0 mm 9 m/s 752 mmHg 73%
    15:00 +11°C° 0 mm 9 m/s 752 mmHg 75%
    16:00 +10°C° 0 mm 8 m/s 752 mmHg 77%
    17:00 +10°C° 0 mm 8 m/s 752 mmHg 79%
    18:00 +9°C° 0 mm 7 m/s 752 mmHg 80%
    19:00 +9°C° 0 mm 7 m/s 753 mmHg 82%
    20:00 +8°C° 0 mm 7 m/s 753 mmHg 84%
    21:00 +8°C° 0 mm 6 m/s 753 mmHg 86%
    22:00 +8°C° 0 mm 6 m/s 754 mmHg 88%
    23:00 +7°C° 0 mm 5 m/s 754 mmHg 90%

    24 Janvier, Jeudi

    Heure Température Précipitation Vent Pression Humidité
    00:00 +7°C° 0 mm 5 m/s 754 mmHg 91%
    01:00 +7°C° 0 mm 5 m/s 754 mmHg 91%
    02:00 +7°C° 0 mm 4 m/s 754 mmHg 92%
    03:00 +7°C° 0.1 mm 4 m/s 754 mmHg 93%
    04:00 +7°C° 0.1 mm 4 m/s 754 mmHg 95%
    05:00 +7°C° 0.1 mm 4 m/s 754 mmHg 96%
    06:00 +8°C° 0.1 mm 3 m/s 754 mmHg 96%
    07:00 +8°C° 0.1 mm 3 m/s 754 mmHg 97%
    08:00 +8°C° 0.1 mm 3 m/s 754 mmHg 97%
    09:00 +9°C° 0 mm 3 m/s 754 mmHg 94%
    10:00 +9°C° 0 mm 3 m/s 754 mmHg 92%
    11:00 +10°C° 0 mm 3 m/s 754 mmHg 89%
    12:00 +9°C° 0 mm 5 m/s 754 mmHg 90%
    13:00 +8°C° 0 mm 6 m/s 753 mmHg 90%
    14:00 +8°C° 0 mm 7 m/s 753 mmHg 91%
    15:00 +8°C° 0 mm 7 m/s 753 mmHg 92%
    16:00 +6°C° 0 mm 8 m/s 753 mmHg 93%
    17:00 +6°C° 0 mm 8 m/s 753 mmHg 94%
    18:00 +6°C° 0 mm 9 m/s 753 mmHg 94%
    19:00 +6°C° 0 mm 10 m/s 753 mmHg 94%
    20:00 +5°C° 0 mm 10 m/s 754 mmHg 93%
    21:00 +5°C° 0 mm 10 m/s 754 mmHg 93%
    22:00 +5°C° 0 mm 10 m/s 754 mmHg 93%
    23:00 +5°C° 0 mm 10 m/s 754 mmHg 92%

    25 Janvier, Vendredi

    Heure Température Précipitation Vent Pression Humidité
    00:00 +5°C° 0 mm 10 m/s 754 mmHg 93%
    01:00 +5°C° 0 mm 9 m/s 754 mmHg 93%
    02:00 +5°C° 0 mm 9 m/s 754 mmHg 93%
    03:00 +5°C° 0.2 mm 8 m/s 754 mmHg 93%
    04:00 +5°C° 0.2 mm 8 m/s 754 mmHg 93%
    05:00 +5°C° 0.2 mm 8 m/s 754 mmHg 93%
    06:00 +5°C° 0.6 mm 8 m/s 755 mmHg 93%
    07:00 +5°C° 0.6 mm 9 m/s 755 mmHg 93%
    08:00 +5°C° 0.6 mm 9 m/s 755 mmHg 93%
    09:00 +5°C° 0.3 mm 8 m/s 756 mmHg 93%
    10:00 +4°C° 0.3 mm 8 m/s 756 mmHg 93%
    11:00 +4°C° 0.3 mm 8 m/s 756 mmHg 92%
    12:00 +4°C° 0.1 mm 8 m/s 756 mmHg 93%
    13:00 +4°C° 0.1 mm 8 m/s 756 mmHg 93%
    14:00 +4°C° 0.1 mm 7 m/s 756 mmHg 93%
    15:00 +4°C° 0.2 mm 7 m/s 755 mmHg 93%
    16:00 +4°C° 0.2 mm 7 m/s 755 mmHg 94%
    17:00 +4°C° 0.2 mm 7 m/s 755 mmHg 95%
    18:00 +4°C° 0.4 mm 8 m/s 755 mmHg 95%
    19:00 +4°C° 0.4 mm 8 m/s 755 mmHg 96%
    20:00 +4°C° 0.4 mm 8 m/s 755 mmHg 96%
    21:00 +4°C° 1.1 mm 8 m/s 755 mmHg 96%
    22:00 +4°C° 1.1 mm 8 m/s 755 mmHg 96%
    23:00 +4°C° 1.1 mm 7 m/s 755 mmHg 96%

    26 Janvier, Samedi

    Heure Température Précipitation Vent Pression Humidité
    00:00 +4°C° 2 mm 7 m/s 755 mmHg 97%
    01:00 +4°C° 2 mm 6 m/s 754 mmHg 97%
    02:00 +4°C° 2 mm 6 m/s 754 mmHg 97%
    03:00 +5°C° 1.2 mm 5 m/s 754 mmHg 97%
    04:00 +5°C° 1.2 mm 5 m/s 754 mmHg 97%
    05:00 +5°C° 1.2 mm 4 m/s 753 mmHg 96%
    06:00 +4°C° 0.1 mm 6 m/s 754 mmHg 95%
    07:00 +3°C° 0.1 mm 7 m/s 754 mmHg 93%
    08:00 +2°C° 0.1 mm 8 m/s 754 mmHg 92%
    09:00 +2°C° 0 mm 8 m/s 754 mmHg 90%
    10:00 +2°C° 0 mm 9 m/s 754 mmHg 88%
    11:00 +2°C° 0 mm 9 m/s 755 mmHg 86%
    12:00 +2°C° 0 mm 8 m/s 755 mmHg 84%
    13:00 +2°C° 0 mm 8 m/s 755 mmHg 82%
    14:00 +2°C° 0 mm 8 m/s 755 mmHg 80%
    15:00 +1°C° 0 mm 8 m/s 755 mmHg 82%
    16:00 +2°C° 0 mm 7 m/s 755 mmHg 84%
    17:00 0°C° 0 mm 7 m/s 755 mmHg 86%
    18:00 0°C° 0 mm 7 m/s 755 mmHg 86%
    19:00 0°C° 0 mm 7 m/s 756 mmHg 86%
    20:00 -1°C° 0 mm 7 m/s 756 mmHg 86%
    21:00 -1°C° 0 mm 7 m/s 756 mmHg 86%
    22:00 -1°C° 0 mm 7 m/s 756 mmHg 86%
    23:00 -1°C° 0 mm 7 m/s 756 mmHg 86%
    Voir plus